Simultaneous Nadir Overpasses (SNOs) Predictions

Prediction of SNOs between AQUA and NPP Satellite Orbit:

Table of predicted SNOs for the next 14.0 days since TLE Epoch: 6/23/2012
Index Date (AQUA) Time (AQUA) Lat,Lon (AQUA) SZA (AQUA ) Date (NPP) Time (NPP) Lat,Lon (NPP) SZA (NPP ) Distance(km) Time Diff (sec)
1 06/24/2012 23:27:23 -76.81,-110.26 106.50 06/24/2012 23:27:03 -76.80,-110.34 106.46 2.49 20
2 06/25/2012 00:16:28 77.77, 61.16 72.31 06/25/2012 00:17:24 77.78, 61.25 72.24 2.33 56
3 06/27/2012 15:43:50 -77.14, 6.82 106.78 06/27/2012 15:43:47 -77.14, 6.83 106.78 0.27 3
4 06/27/2012 16:32:52 78.22, 179.05 71.85 06/27/2012 16:34:06 78.18, 179.08 71.81 4.54 74
5 06/30/2012 07:11:15 76.42, -47.53 74.27 06/30/2012 07:10:09 76.42, -47.53 74.32 0.07 66
6 06/30/2012 08:00:24 -77.30, 123.27 106.81 06/30/2012 08:00:35 -77.31, 123.32 106.83 1.25 11
7 07/02/2012 23:27:53 76.55, 68.73 74.33 07/02/2012 23:26:58 76.55, 68.72 74.37 0.17 55
8 07/03/2012 00:17:03 -77.38,-120.58 106.70 07/03/2012 00:17:25 -77.39,-120.55 106.72 0.60 22
9 07/05/2012 15:44:37 76.51,-175.62 74.65 07/05/2012 15:43:50 76.50,-175.69 74.70 1.90 47




NCC Satellite Simultaneous Nadir Overpasses (SNOs) Prediction Service
